When you browse on this site, cookies collect data to enhance your experience and personalize the content and advertising you see.
Visit our Privacy Policy to learn more. By continuing to use the site, you agree to this use of cookies and data.
  • In Slovakia
  • List of Countries
  • For 7 days
  • Water Temperature
  • Satellite Maps
  • Weather Map
  • Weather Widgets
  • user-avatar
    Login

    Hourly Weather Tibissa

    Today, 25 March, Monday

    Time Temperature Precipitation Wind Pressure Humidity
    00:00 +11°C° 0 mm 1 mps 688 mmHg 64%
    01:00 +9°C° 0 mm 2 mps 688 mmHg 65%
    02:00 +9°C° 0 mm 2 mps 687 mmHg 68%
    03:00 +8°C° 0 mm 2 mps 687 mmHg 71%
    04:00 +8°C° 0 mm 2 mps 687 mmHg 73%
    05:00 +8°C° 0 mm 2 mps 687 mmHg 73%
    06:00 +8°C° 0 mm 2 mps 687 mmHg 74%
    07:00 +8°C° 0 mm 2 mps 687 mmHg 72%
    08:00 +10°C° 0 mm 3 mps 687 mmHg 64%
    09:00 +12°C° 0 mm 3 mps 687 mmHg 55%
    10:00 +14°C° 0 mm 4 mps 687 mmHg 47%
    11:00 +15°C° 0 mm 4 mps 687 mmHg 43%
    12:00 +17°C° 0 mm 4 mps 687 mmHg 40%
    13:00 +18°C° 0 mm 4 mps 687 mmHg 36%
    14:00 +18°C° 0 mm 4 mps 687 mmHg 35%
    15:00 +18°C° 0 mm 4 mps 686 mmHg 33%
    16:00 +19°C° 0 mm 4 mps 686 mmHg 32%
    17:00 +17°C° 0.1 mm 4 mps 685 mmHg 39%
    18:00 +16°C° 0.1 mm 3 mps 685 mmHg 46%
    19:00 +14°C° 0.1 mm 3 mps 685 mmHg 52%
    20:00 +15°C° 0.5 mm 2 mps 685 mmHg 59%
    21:00 +14°C° 0.5 mm 2 mps 685 mmHg 65%
    22:00 +13°C° 0.5 mm 1 mps 685 mmHg 71%
    23:00 +12°C° 0 mm 1 mps 685 mmHg 73%

    Tomorrow, 26 March, Tuesday

    Time Temperature Precipitation Wind Pressure Humidity
    00:00 +12°C° 0 mm 1 mps 685 mmHg 74%
    01:00 +11°C° 0 mm 1 mps 684 mmHg 76%
    02:00 +11°C° 0 mm 1 mps 684 mmHg 76%
    03:00 +11°C° 0 mm 1 mps 684 mmHg 75%
    04:00 +10°C° 0 mm 2 mps 683 mmHg 75%
    05:00 +11°C° 0 mm 1 mps 683 mmHg 74%
    06:00 +10°C° 0 mm 1 mps 683 mmHg 73%
    07:00 +10°C° 0 mm 1 mps 683 mmHg 71%
    08:00 +12°C° 0 mm 2 mps 684 mmHg 64%
    09:00 +14°C° 0 mm 2 mps 684 mmHg 57%
    10:00 +16°C° 0 mm 3 mps 685 mmHg 49%
    11:00 +16°C° 0 mm 3 mps 685 mmHg 47%
    12:00 +17°C° 0 mm 4 mps 685 mmHg 45%
    13:00 +18°C° 0 mm 4 mps 685 mmHg 43%
    14:00 +16°C° 0.7 mm 5 mps 684 mmHg 49%
    15:00 +15°C° 0.7 mm 6 mps 684 mmHg 56%
    16:00 +14°C° 0.7 mm 6 mps 683 mmHg 62%
    17:00 +13°C° 0.7 mm 5 mps 683 mmHg 68%
    18:00 +12°C° 0.7 mm 4 mps 683 mmHg 75%
    19:00 +11°C° 0.7 mm 3 mps 683 mmHg 81%
    20:00 +10°C° 1.3 mm 3 mps 683 mmHg 84%
    21:00 +8°C° 1.3 mm 4 mps 684 mmHg 86%
    22:00 +7°C° 1.3 mm 4 mps 684 mmHg 89%
    23:00 +7°C° 0.5 mm 4 mps 684 mmHg 87%

    Day after tomorrow, 27 March, Wednesday

    Time Temperature Precipitation Wind Pressure Humidity
    00:00 +6°C° 0.5 mm 4 mps 684 mmHg 86%
    01:00 +6°C° 0.5 mm 4 mps 684 mmHg 84%
    02:00 +5°C° 1.2 mm 4 mps 684 mmHg 84%
    03:00 +5°C° 1.2 mm 5 mps 683 mmHg 85%
    04:00 +5°C° 1.2 mm 5 mps 683 mmHg 85%
    05:00 +5°C° 1.1 mm 5 mps 683 mmHg 84%
    06:00 +3°C° 1.1 mm 5 mps 683 mmHg 84%
    07:00 +4°C° 1.1 mm 4 mps 683 mmHg 83%
    08:00 +4°C° 1.1 mm 4 mps 684 mmHg 81%
    09:00 +5°C° 1.1 mm 4 mps 684 mmHg 78%
    10:00 +5°C° 1.1 mm 4 mps 685 mmHg 76%
    11:00 +5°C° 1.2 mm 4 mps 684 mmHg 76%
    12:00 +5°C° 1.2 mm 3 mps 684 mmHg 76%
    13:00 +5°C° 1.2 mm 3 mps 684 mmHg 75%
    14:00 +6°C° 0.2 mm 4 mps 684 mmHg 74%
    15:00 +7°C° 0.2 mm 4 mps 684 mmHg 72%
    16:00 +7°C° 0.2 mm 4 mps 684 mmHg 70%
    17:00 +7°C° 0 mm 4 mps 684 mmHg 74%
    18:00 +6°C° 0 mm 4 mps 684 mmHg 78%
    19:00 +6°C° 0 mm 4 mps 684 mmHg 81%
    20:00 +6°C° 0 mm 4 mps 684 mmHg 85%
    21:00 +5°C° 0 mm 4 mps 684 mmHg 89%
    22:00 +5°C° 0 mm 4 mps 685 mmHg 93%
    23:00 +5°C° 0 mm 4 mps 685 mmHg 92%

    28 March, Thursday

    Time Temperature Precipitation Wind Pressure Humidity
    00:00 +5°C° 0 mm 4 mps 685 mmHg 92%
    01:00 +5°C° 0 mm 5 mps 685 mmHg 91%
    02:00 +5°C° 0 mm 5 mps 685 mmHg 91%
    03:00 +5°C° 0 mm 5 mps 685 mmHg 91%
    04:00 +5°C° 0 mm 5 mps 684 mmHg 91%
    05:00 +5°C° 0 mm 5 mps 684 mmHg 91%
    06:00 +5°C° 0 mm 5 mps 685 mmHg 91%
    07:00 +5°C° 0 mm 5 mps 685 mmHg 92%
    08:00 +6°C° 0 mm 5 mps 685 mmHg 87%
    09:00 +5°C° 0 mm 6 mps 685 mmHg 83%
    10:00 +7°C° 0 mm 6 mps 686 mmHg 79%
    11:00 +8°C° 0 mm 6 mps 686 mmHg 76%
    12:00 +8°C° 0 mm 6 mps 686 mmHg 72%
    13:00 +9°C° 0 mm 6 mps 686 mmHg 69%
    14:00 +9°C° 0 mm 6 mps 686 mmHg 68%
    15:00 +10°C° 0 mm 6 mps 686 mmHg 68%
    16:00 +10°C° 0 mm 6 mps 686 mmHg 67%
    17:00 +9°C° 0.1 mm 6 mps 686 mmHg 73%
    18:00 +8°C° 0.1 mm 5 mps 686 mmHg 79%
    19:00 +7°C° 0.1 mm 5 mps 686 mmHg 85%
    20:00 +7°C° 0 mm 4 mps 687 mmHg 86%
    21:00 +6°C° 0 mm 4 mps 688 mmHg 87%
    22:00 +7°C° 0 mm 3 mps 688 mmHg 88%
    23:00 +7°C° 0 mm 3 mps 688 mmHg 88%

    29 March, Friday

    Time Temperature Precipitation Wind Pressure Humidity
    00:00 +7°C° 0 mm 3 mps 688 mmHg 87%
    01:00 +7°C° 0 mm 3 mps 688 mmHg 87%
    02:00 +5°C° 0 mm 3 mps 688 mmHg 90%
    03:00 +6°C° 0 mm 2 mps 688 mmHg 92%
    04:00 +5°C° 0 mm 2 mps 688 mmHg 94%
    05:00 +5°C° 0 mm 2 mps 688 mmHg 94%
    06:00 +5°C° 0 mm 2 mps 688 mmHg 93%
    07:00 +5°C° 0 mm 2 mps 689 mmHg 93%
    08:00 +5°C° 0 mm 3 mps 689 mmHg 85%
    09:00 +7°C° 0 mm 3 mps 689 mmHg 77%
    10:00 +8°C° 0 mm 3 mps 690 mmHg 69%
    11:00 +9°C° 0 mm 3 mps 690 mmHg 63%
    12:00 +11°C° 0 mm 3 mps 690 mmHg 57%
    13:00 +12°C° 0 mm 3 mps 690 mmHg 50%
    14:00 +12°C° 0 mm 3 mps 689 mmHg 48%
    15:00 +12°C° 0 mm 3 mps 689 mmHg 45%
    16:00 +13°C° 0 mm 3 mps 689 mmHg 43%
    17:00 +12°C° 0 mm 3 mps 689 mmHg 50%
    18:00 +11°C° 0 mm 4 mps 689 mmHg 57%
    19:00 +9°C° 0 mm 5 mps 689 mmHg 64%
    20:00 +8°C° 0 mm 4 mps 689 mmHg 71%
    21:00 +9°C° 0 mm 3 mps 690 mmHg 78%
    22:00 +8°C° 0 mm 2 mps 690 mmHg 86%
    23:00 +8°C° 0 mm 2 mps 690 mmHg 88%

    30 March, Saturday

    Time Temperature Precipitation Wind Pressure Humidity
    00:00 +8°C° 0 mm 1 mps 690 mmHg 90%
    01:00 +7°C° 0 mm 0 mps 690 mmHg 92%
    02:00 +6°C° 0 mm 0 mps 690 mmHg 93%
    03:00 +6°C° 0 mm 0 mps 689 mmHg 94%
    04:00 +6°C° 0 mm 0 mps 689 mmHg 94%
    05:00 +6°C° 0 mm 0 mps 690 mmHg 93%
    06:00 +6°C° 0 mm 0 mps 690 mmHg 92%
    07:00 +6°C° 0 mm 0 mps 690 mmHg 91%
    08:00 +8°C° 0 mm 0 mps 690 mmHg 81%
    09:00 +11°C° 0 mm 1 mps 691 mmHg 71%
    10:00 +12°C° 0 mm 1 mps 691 mmHg 61%
    11:00 +13°C° 0 mm 1 mps 691 mmHg 54%
    12:00 +14°C° 0 mm 1 mps 691 mmHg 48%
    13:00 +15°C° 0 mm 1 mps 690 mmHg 41%
    14:00 +15°C° 0 mm 1 mps 690 mmHg 40%
    15:00 +16°C° 0 mm 1 mps 690 mmHg 38%
    16:00 +16°C° 0 mm 1 mps 689 mmHg 37%
    17:00 +15°C° 0 mm 2 mps 689 mmHg 41%
    18:00 +15°C° 0 mm 2 mps 689 mmHg 45%
    19:00 +13°C° 0 mm 3 mps 689 mmHg 48%
    20:00 +13°C° 0 mm 3 mps 689 mmHg 51%
    21:00 +12°C° 0 mm 4 mps 689 mmHg 54%
    22:00 +12°C° 0 mm 4 mps 689 mmHg 57%
    23:00 +11°C° 0 mm 4 mps 689 mmHg 59%
    Show more